Printer-friendly version
Follow the MPC on Twitter Follow the MPC on Facebook The MPC blog
Minor Planet Center

MPEC 2008-G91 : 2008 GJ110

The following Minor Planet Electronic Circular may be linked-to from your own Web pages, but must not otherwise be redistributed electronically.

A form allowing access to any MPEC is at the bottom of this page.


Read MPEC 2008-G90 Read MPEC 2008-H01


M.P.E.C. 2008-G91                                Issued 2008 Apr. 15, 19:37 UT

     The Minor Planet Electronic Circulars contain information on unusual
         minor planets and routine data on comets.  They are published
   on behalf of Commission 20 of the International Astronomical Union by the
          Minor Planet Center, Smithsonian Astrophysical Observatory,
                          Cambridge, MA 02138, U.S.A.

             Prepared using the Tamkin Foundation Computer Network

                              MPC@CFA.HARVARD.EDU
          URL http://www.cfa.harvard.edu/iau/mpc.html  ISSN 1523-6714

                                  2008 GJ110

Observations:
     K08GB0J* C2008 04 15.17267 12 31 47.13 +24 39 53.1          18.2 V EG091703
     K08GB0J  C2008 04 15.17968 12 31 45.04 +24 38 54.1          18.1 V EG091703
     K08GB0J  C2008 04 15.18668 12 31 42.96 +24 37 55.8          18.0 V EG091703
     K08GB0J  C2008 04 15.19369 12 31 40.98 +24 36 57.3          18.6 V EG091703
     K08GB0J  C2008 04 15.22553 12 31 31.62 +24 32 30.8          18.6 V EG091703
     K08GB0J  C2008 04 15.22605 12 31 31.47 +24 32 25.7          18.5 V EG091703
     K08GB0J  C2008 04 15.22659 12 31 31.33 +24 32 22.1          18.5 V EG091703
     K08GB0J  C2008 04 15.22711 12 31 31.18 +24 32 18.0          18.4 V EG091703
     K08GB0J  C2008 04 15.26109612 31 20.27 +24 27 27.6          19.0 V EG091H55
     K08GB0J  C2008 04 15.26421712 31 19.38 +24 27 01.5          19.0 V EG091H55
     K08GB0J  C2008 04 15.26685 12 31 19.65 +24 26 46.5          18.2 R EG091854
     K08GB0J  C2008 04 15.26716112 31 18.52 +24 26 36.7          19.1 V EG091H55
     K08GB0J  C2008 04 15.26924 12 31 18.94 +24 26 26.0          18.5 R EG091854
     K08GB0J  C2008 04 15.27164 12 31 18.22 +24 26 06.3          18.2 R EG091854
     K08GB0J  C2008 04 15.28504 12 31 14.30 +24 24 15.3          18.7 V EG091703
     K08GB0J  C2008 04 15.28556 12 31 14.12 +24 24 09.8          18.3 V EG091703
     K08GB0J  C2008 04 15.28609 12 31 13.94 +24 24 05.7          18.3 V EG091703
     K08GB0J  C2008 04 15.28662 12 31 13.83 +24 24 01.9          18.4 V EG091703
     K08GB0J  C2008 04 15.35984 12 30 52.51 +24 13 41.9          18.4 R EG091H51
     K08GB0J  C2008 04 15.36153 12 30 52.03 +24 13 27.8          18.3 R EG091H51
     K08GB0J  C2008 04 15.36209 12 30 51.88 +24 13 23.7          18.2 R EG091H51
     K08GB0J  C2008 04 15.36323 12 30 51.54 +24 13 13.9          18.1 R EG091H51

Observer details:
703 Catalina Sky Survey.  Observer R. E. Hill.  Measurers E. C. Beshore,
    A. Boattini, G. J. Garradd, A. R. Gibbs, A. D. Grauer, R. E. Hill,
    R. A. Kowalski, S. M. Larson, R. H. McNaught.  0.68-m Schmidt + CCD.
854 Sabino Canyon Observatory, Tucson.  Observer J. E. McGaha.  0.36-m f/10.0
    Schmidt-Cassegrain + CCD.
H51 Greiner Research Observatory, Verona.  Observer M. Mills.  0.40-m f/8
    Schmidt-Cassegrain + CCD.
H55 Astronomical Research Observatory, Charleston.  Observer R. Holmes.
    Measurers M. Borges, M. Ambrosio, C. Martins.  0.81-m f/4.0 astrograph
    + CCD.

Orbital elements:
2008 GJ110                                               Earth MOID = 0.1024 AU
Epoch 2008 May 14.0 TT = JDT 2454600.5                  MPC
M  46.95947              (2000.0)            P               Q
n   0.55281639     Peri.   32.95708     +0.36515030     -0.91726715
a   1.4703321      Node    36.35179     +0.78551474     +0.21190526
e   0.7889542      Incl.   15.56152     +0.49963172     +0.33721971
P   1.78           H   20.4           G   0.15           U   9
Residuals in seconds of arc
080415 703  0.3+  0.1+    080415 H55  0.0   0.0     080415 703  0.9-  0.2-
080415 703  0.2-  0.2-    080415 H55  0.1+  0.0     080415 703  0.3-  0.4+
080415 703  0.6-  0.1+    080415 854  0.8+  0.3+    080415 H51  0.2+  0.2-
080415 703  0.4+  0.3+    080415 H55  0.0   0.2-    080415 H51  0.1+  0.2-
080415 703  0.2-  0.0     080415 854  0.6+  0.3-    080415 H51  0.1+  0.3+
080415 703  0.1-  0.8-    080415 854  0.3+  0.0     080415 H51  0.2-  0.0
080415 703  0.1+  0.1+    080415 703  0.1-  0.7+
080415 703  0.1+  0.4+    080415 703  0.5-  0.5-

Ephemeris:
2008 GJ110               a,e,i = 1.47, 0.79, 16                  q = 0.3103
Date    TT    R. A. (2000) Decl.     Delta      r     Elong.  Phase     V
2008 04 14    12 37.86   +27 38.5    0.178    1.146   140.8    33.5    18.3
2008 04 24    12 10.35   +11 45.6    0.326    1.279   141.9    29.0    19.8
2008 05 04    12 04.84   +05 23.4    0.493    1.401   134.9    30.7    20.9
2008 05 14    12 06.07   +01 45.5    0.671    1.513   127.2    32.1    21.8
2008 05 24    12 10.70   -00 47.4    0.857    1.618   119.7    32.9    22.5

Sonia Keys                   (C) Copyright 2008 MPC           M.P.E.C. 2008-G91

Read MPEC 2008-G90 Read MPEC 2008-H01


MPEC number:

Enter an MPEC number in one of the following forms:

  • 1997-B01 (the full form)
  • J97B01 (the packed version of the full form)
  • B01 (the abbreviated form)

Valid HTML 4.01!